Home   Weather   Zoetermeer   Past weeks

Flag for Netherlands Past Weather in Zoetermeer, Netherlands — Yesterday and Last 2 Weeks

Now
32 °F

Partly sunny.


Feels Like: 26 °F
Forecast: 27 / 34 °F
Wind: 6 mph from Southeast

Location: Amsterdam Schiphol Airport

Current Time: Jan 24, 2017 at 12:43:32 pm

Latest Report: Jan 24, 2017 at 11:55 am


Visibility: 0 mi

Pressure: 30.36 "Hg

Humidity: 100%

Dew Point: 32 °F

Location of ZoetermeerLocation

Past Weather in Zoetermeer — Graph

°F

Zoetermeer Temperature Yesterday

Maximum temperature yesterday: 37 °F (at 11:55 am)
Minimum temperature yesterday: 21 °F (at 2:55 am)
Average temperature yesterday: 32 °F

High & Low Weather Summary for the Past Weeks

 TemperatureHumidityPressure
High50 °F (Jan 11, 11:55 am)100% (Jan 9, 11:55 am)30.74 "Hg (Jan 9, 11:55 am)
Low21 °F (Jan 17, 11:25 pm)39% (Jan 19, 2:25 pm)29.09 "Hg (Jan 12, 11:25 pm)
Average34 °F88%30.17 "Hg
* Reported Jan 9 11:25 am — Jan 24 11:25 am, Zoetermeer, Weather by CustomWeather, © 2017

Note: Actual official high and low records may vary slightly from our data, if they occured in-between our weather recording intervals... More about our weather records

Advertising

Zoetermeer Weather History for the Previous 24 Hours

Scroll right to see more
 ConditionsComfort  
Time TempWeatherWind HumidityBarometerVisibility
11:25 am
Tue, Jan 24
34 °FScattered clouds.3 mph100%30.36 "Hg0 mi
10:55 am34 °FScattered clouds.3 mph100%30.36 "Hg1 mi
10:25 am34 °FScattered clouds.5 mph100%30.36 "Hg1 mi
9:55 am36 °FSleet. Fog.2 mph93%30.33 "Hg3 mi
9:25 am34 °FSleet. Fog.5 mph100%30.33 "Hg3 mi
8:55 am34 °FSleet. Passing clouds.2 mph100%30.33 "Hg5 mi
8:25 am34 °FPassing clouds.1 mph100%30.30 "Hg5 mi
7:55 am34 °FFog.1 mph100%30.30 "Hg5 mi
7:25 am36 °FPassing clouds.1 mph93%30.30 "HgN/A
6:55 am34 °FPassing clouds.1 mph100%30.30 "HgN/A
6:25 am36 °FPassing clouds.1 mph93%30.30 "HgN/A
5:55 am34 °FPassing clouds.1 mph100%30.27 "HgN/A
5:25 am34 °FPassing clouds.1 mph100%30.27 "HgN/A
4:55 am34 °FPassing clouds.2 mph100%30.27 "HgN/A
4:25 am36 °FPassing clouds.2 mph93%30.27 "HgN/A
3:55 am36 °FPassing clouds.1 mph93%30.27 "HgN/A
3:25 am36 °FPassing clouds.1 mph100%30.27 "HgN/A
2:55 am36 °FPassing clouds.3 mph100%30.27 "HgN/A
2:25 am36 °FPassing clouds.3 mph100%30.27 "HgN/A
1:55 am36 °FFog.3 mph93%30.27 "Hg3 mi
1:25 am36 °FFog.2 mph93%30.27 "Hg2 mi
12:55 am36 °FDrizzle. Fog.6 mph93%30.27 "Hg2 mi
12:25 am34 °FDrizzle. Fog.6 mph100%30.27 "Hg2 mi
11:55 pm
Mon, Jan 23
34 °FFog.6 mph100%30.27 "Hg2 mi
11:25 pm34 °FFog.7 mph100%30.27 "Hg3 mi
10:55 pm34 °FChilly.6 mph100%30.27 "Hg4 mi
10:25 pm34 °FChilly.3 mph93%30.27 "Hg2 mi
9:55 pm37 °FChilly.5 mph100%30.30 "Hg2 mi
9:25 pm37 °FChilly.2 mph93%30.30 "Hg1 mi
8:55 pm37 °FChilly.6 mph93%30.30 "Hg1 mi
8:25 pm37 °FChilly.3 mph93%30.30 "Hg2 mi
7:55 pm36 °FChilly.3 mph93%30.30 "Hg1 mi
7:25 pm36 °FChilly.7 mph100%30.27 "Hg1 mi
6:55 pm37 °FFog.7 mph93%30.27 "Hg1 mi
6:25 pm37 °FFog.8 mph93%30.30 "Hg1 mi
5:55 pm37 °FFog.6 mph93%30.30 "Hg1 mi
5:25 pm37 °FFog.7 mph93%30.30 "Hg1 mi
4:55 pm36 °FFog.5 mph100%30.30 "Hg1 mi
4:25 pm37 °FFog.6 mph93%30.30 "Hg1 mi
3:55 pm37 °FFog.8 mph93%30.30 "Hg1 mi
3:25 pm37 °FDrizzle. Fog.7 mph93%30.30 "Hg2 mi
2:55 pm37 °FDrizzle. Fog.7 mph93%30.30 "Hg2 mi
2:25 pm37 °FFog.8 mph93%30.30 "Hg2 mi
1:55 pm37 °FFog.9 mph93%30.30 "Hg2 mi
1:25 pm37 °FFog.7 mph93%30.33 "Hg2 mi
12:55 pm37 °FFog.8 mph93%30.33 "Hg2 mi
12:25 pm37 °FFog.7 mph93%30.33 "Hg2 mi
Weather by CustomWeather, © 2017

See weather overviewHow to use our weather pages